Wind_Speed
15 14 14 14 14 13 13 13 12 12 12 12 12 12 12 11 11 10 10 9 9 8 8 7 7 6 6 6 6 6 6 6 6 6 6 6 5 5 5 5 5 5 5
16 16 16 16 15 15 15 14 14 13 13 14 14 13 13 13 12 12 11 11 10 10 9 8 8 7 7 7 7 7 7 7 7 6 7 7 7 6 6 5 5 5 5
16 17 17 17 17 17 16 15 15 15 15 15 15 14 14 14 14 14 13 13 12 11 10 10 10 9 8 8 8 8 8 8 8 8 8 8 8 8 7 7 6 6 6
18 18 18 18 18 18 18 17 17 16 16 15 16 16 15 15 15 15 15 14 14 13 12 11 11 11 10 10 9 9 9 9 9 9 9 9 9 9 9 8 8 7 7
19 19 19 19 19 19 19 18 18 17 18 17 17 17 17 16 16 16 16 15 15 15 15 14 13 13 12 11 11 11 11 11 10 11 10 10 10 10 10 10 9 9 9
20 20 20 20 21 21 20 20 20 19 19 19 19 19 19 18 17 17 16 17 16 16 17 16 15 15 14 13 13 13 13 12 12 12 12 12 12 12 11 11 11 11 10
22 22 22 21 21 22 22 21 21 21 21 21 20 20 20 20 19 19 19 18 18 18 18 17 17 16 16 15 15 14 14 14 14 14 14 13 13 13 13 13 13 12 12
24 24 23 23 23 23 22 22 22 22 22 22 21 21 21 21 21 21 20 20 20 20 20 19 19 18 18 17 17 16 15 15 14 14 15 15 15 15 14 14 14 14 13
25 25 25 24 24 24 23 23 23 23 23 23 23 23 23 23 23 23 22 22 22 21 21 21 20 20 19 19 18 18 17 16 16 16 15 16 16 16 16 16 15 15 14
27 26 26 25 25 25 25 25 25 25 25 24 24 24 25 24 24 24 24 23 23 23 22 22 22 21 20 20 20 20 19 19 18 17 17 17 17 17 17 17 17 16 16
28 27 27 27 27 27 27 27 27 26 26 26 26 26 26 26 25 25 25 24 24 23 23 23 23 22 22 22 21 21 21 20 20 19 19 19 18 18 18 18 18 17 17
29 29 28 28 29 29 29 29 28 28 28 28 27 27 27 27 26 26 26 26 25 25 24 24 24 24 24 24 24 23 22 22 22 21 21 21 20 20 20 20 19 19 19
30 30 30 29 30 30 30 30 30 30 30 29 29 28 28 27 27 27 27 27 27 27 26 26 26 26 25 25 25 25 24 24 24 23 23 22 22 22 21 21 21 21 21
32 32 32 31 31 31 31 31 31 31 31 30 30 30 29 29 29 29 28 28 28 28 28 27 27 27 27 27 27 27 26 26 25 25 25 24 24 24 23 23 23 23 23
33 33 33 33 33 32 32 32 32 32 32 32 32 31 31 31 31 30 30 30 30 29 29 29 29 29 29 28 28 28 28 28 28 27 27 27 26 26 25 25 24 24 23
35 35 35 35 34 34 34 33 33 34 34 34 33 33 33 33 33 32 32 32 32 31 31 31 31 30 30 30 30 30 29 29 29 29 29 29 29 29 28 27 27 26 26
37 37 38 37 36 35 35 35 35 35 35 35 35 35 34 34 33 33 33 33 33 33 33 32 32 32 32 32 32 32 32 32 31 31 31 31 31 31 30 30 29 29 28
39 39 39 39 38 38 37 37 37 37 37 37 37 36 36 35 35 35 35 35 35 35 34 34 34 34 34 34 33 33 33 33 33 33 32 32 33 32 32 32 32 32 32
41 40 40 40 40 40 40 39 39 38 38 38 38 38 38 37 37 37 37 37 37 37 37 36 36 36 36 36 36 35 35 34 34 35 35 35 34 34 34 34 34 34 34
41 42 42 42 42 42 42 41 41 41 40 39 39 39 39 39 39 39 38 38 39 39 38 38 38 37 37 37 37 37 37 37 37 36 36 37 36 36 36 36 36 36 35
41 42 42 43 43 43 43 42 42 42 41 41 41 40 40 40 40 40 41 40 40 40 39 39 39 38 38 39 39 39 39 39 39 38 38 38 38 38 38 38 37 37 37
40 41 43 43 43 43 43 44 43 43 43 42 43 42 42 42 42 42 42 41 41 41 40 40 40 40 40 41 41 41 41 40 40 40 40 40 40 40 39 39 39 39 40
41 41 43 44 44 44 44 44 44 44 44 43 43 44 43 43 44 44 43 43 43 42 42 42 42 42 42 42 43 42 42 42 42 42 42 42 41 41 41 41 41 41 41
42 43 44 44 45 45 45 45 46 45 44 44 45 45 44 44 45 45 45 45 44 44 44 44 44 44 44 44 44 44 44 44 43 43 43 43 43 43 43 43 43 42 42
43 44 45 45 46 47 46 47 47 47 46 44 45 46 46 46 45 45 45 45 46 46 46 46 45 45 45 45 44 44 44 44 44 44 44 44 44 44 44 44 44 44 44
42 43 45 46 46 47 47 47 48 48 48 47 46 46 46 47 48 48 47 47 47 47 46 46 46 46 45 45 45 44 44 44 43 44 45 46 45 45 46 46 46 46 45
Wind_Direction
240 240 239 239 237 235 234 235 236 236 236 235 236 238 240 243 241 239 238 238 242 245 248 251 250 250 251 247 247 249 250 247 241 240 241 243 246 247 244 242 243 242 236
242 241 241 241 241 239 237 237 238 239 239 237 238 239 240 241 240 242 243 244 245 247 250 252 251 249 252 251 253 252 250 251 250 247 247 248 250 252 252 252 248 247 251
243 243 243 242 242 241 239 239 240 241 242 241 240 242 243 244 244 243 245 246 246 247 249 251 252 252 253 253 255 254 250 250 253 253 252 251 252 256 257 255 253 251 256
243 244 243 242 241 241 239 240 242 243 243 243 242 243 245 248 246 247 248 247 248 249 250 253 254 254 255 256 255 254 252 252 253 255 255 253 252 254 256 255 256 257 259
243 242 241 240 240 240 239 241 244 244 243 242 243 244 247 250 251 251 251 249 249 250 250 252 254 256 256 256 256 256 254 254 255 255 255 253 253 253 254 256 256 255 259
242 242 242 242 241 241 241 242 243 244 243 243 245 245 246 249 252 254 252 251 251 251 251 251 253 256 255 256 256 256 256 255 256 257 256 254 254 254 254 254 254 254 258
242 242 243 243 243 242 241 242 243 243 245 245 246 246 248 250 251 253 252 251 252 253 253 252 253 254 254 255 255 255 257 256 257 258 256 255 255 256 254 254 255 257 258
243 243 243 243 243 243 243 243 244 243 245 246 248 248 250 250 250 252 252 252 253 254 254 254 253 253 254 255 256 256 257 256 257 259 258 256 255 256 256 255 255 258 259
244 244 244 244 244 244 244 244 244 244 246 247 248 249 250 251 251 251 252 252 253 254 255 255 253 252 252 253 255 256 257 256 257 258 258 257 255 255 256 257 256 257 260
244 244 244 244 244 245 245 246 246 247 247 248 249 249 250 250 251 252 252 253 253 254 255 255 254 253 253 254 254 256 255 256 256 257 258 257 257 256 256 256 255 256 259
243 243 244 244 245 246 246 246 247 247 247 248 250 250 250 250 250 251 253 254 254 254 254 255 255 253 254 254 254 254 254 255 255 256 256 257 257 257 257 257 257 257 258
243 243 243 243 245 246 246 247 248 248 248 249 250 251 251 251 251 251 253 254 254 254 254 254 254 254 254 254 254 254 254 254 254 255 255 256 256 257 257 258 259 259 260
244 244 244 244 245 246 246 246 247 248 248 249 250 251 252 252 252 252 253 254 254 253 254 254 255 255 255 256 255 255 254 253 253 253 254 255 256 257 258 259 260 260 260
244 245 245 246 246 246 246 246 247 249 249 249 250 252 252 252 253 253 254 255 254 253 253 254 254 255 255 256 255 254 253 253 253 253 254 255 256 257 258 260 260 261 262
245 245 246 247 248 247 247 247 249 249 250 251 251 252 253 252 252 253 254 255 254 254 253 253 254 255 255 255 255 255 254 255 254 254 254 255 256 257 258 260 260 262 262
244 245 247 248 249 249 248 248 249 249 250 251 252 253 253 252 251 252 253 254 254 254 254 254 254 255 255 256 256 256 256 256 256 256 256 256 255 256 257 259 259 260 261
244 244 245 246 248 249 250 250 250 251 251 251 253 254 252 252 252 253 253 253 254 255 254 254 255 255 256 256 257 257 257 257 256 256 257 257 257 257 257 258 258 259 260
244 244 245 246 247 248 250 250 251 251 252 252 252 252 253 253 254 254 254 254 254 255 255 255 255 255 256 256 257 257 257 257 257 257 258 258 258 258 257 258 258 259 260
245 245 245 246 247 248 249 250 250 251 253 253 252 253 254 255 255 255 256 255 255 255 256 255 256 256 257 257 257 257 258 257 257 258 259 259 258 258 257 257 258 258 259
247 246 246 247 247 247 248 250 251 252 252 253 253 254 254 255 256 257 256 256 256 257 257 256 257 257 257 257 258 258 258 258 258 258 259 258 258 258 257 257 257 258 259
248 246 247 248 247 248 250 252 252 251 252 252 252 254 255 255 257 257 257 256 256 257 258 258 258 258 258 258 259 259 259 260 260 259 259 258 257 257 257 257 258 259 260
249 248 247 247 248 249 250 251 251 251 251 252 252 252 253 255 256 257 257 256 256 257 257 258 259 259 259 259 260 260 260 261 261 260 259 258 258 258 258 258 258 259 260
251 250 248 249 249 250 250 250 251 251 251 252 252 253 254 254 255 256 256 256 257 257 257 258 259 260 260 260 260 261 261 260 260 260 259 258 258 258 258 258 258 259 259
251 251 249 249 250 250 250 250 251 252 253 253 253 254 255 255 255 256 257 257 256 257 258 259 259 260 260 260 261 261 261 261 260 260 259 259 258 258 258 259 259 259 260
253 253 251 250 250 250 250 250 251 251 252 253 254 254 254 255 255 256 256 257 258 259 258 259 259 260 260 260 260 260 261 261 261 259 258 257 258 258 258 259 259 260 260
254 254 252 250 251 251 252 252 252 252 252 253 255 255 254 255 255 256 257 257 259 259 259 259 259 259 259 259 259 259 260 261 260 260 259 258 257 257 257 258 259 259 260
Height
5829 5830 5831 5832 5833 5833 5834 5835 5836 5837 5838 5840 5841 5841 5842 5843 5843 5844 5845 5845 5846 5846 5846 5847 5847 5847 5848 5848 5848 5849 5849 5849 5850 5850 5851 5851 5852 5852 5852 5852 5853 5853 5853
5826 5827 5829 5830 5830 5831 5832 5833 5834 5835 5836 5838 5839 5840 5840 5841 5842 5843 5843 5844 5844 5845 5845 5845 5846 5846 5847 5847 5847 5848 5848 5849 5849 5850 5850 5851 5851 5851 5851 5852 5852 5852 5852
5824 5825 5826 5827 5828 5829 5830 5831 5832 5833 5834 5835 5837 5838 5838 5839 5840 5841 5841 5842 5843 5843 5844 5844 5844 5845 5845 5846 5847 5847 5847 5847 5848 5849 5849 5849 5850 5850 5850 5851 5851 5851 5851
5820 5822 5823 5824 5825 5826 5828 5829 5830 5831 5832 5833 5834 5835 5836 5837 5838 5838 5839 5840 5841 5841 5842 5842 5843 5843 5844 5845 5845 5846 5846 5846 5847 5847 5848 5848 5849 5849 5849 5849 5850 5850 5850
5817 5818 5819 5821 5822 5823 5825 5826 5827 5828 5829 5830 5832 5833 5834 5835 5835 5836 5836 5837 5838 5839 5840 5840 5841 5841 5842 5843 5843 5844 5844 5845 5845 5845 5846 5847 5847 5847 5847 5848 5848 5848 5849
5813 5815 5816 5817 5818 5820 5821 5823 5824 5825 5826 5828 5829 5830 5831 5832 5832 5833 5834 5834 5835 5836 5837 5838 5838 5839 5840 5840 5841 5842 5842 5843 5843 5843 5844 5844 5845 5845 5846 5846 5846 5847 5847
5809 5810 5812 5813 5814 5816 5818 5819 5820 5822 5823 5824 5825 5827 5827 5828 5829 5830 5830 5831 5832 5833 5834 5835 5835 5836 5837 5838 5838 5839 5840 5840 5841 5841 5842 5842 5843 5843 5844 5844 5845 5845 5845
5804 5806 5807 5809 5810 5812 5814 5815 5816 5818 5819 5820 5821 5823 5824 5824 5825 5826 5827 5828 5829 5829 5830 5831 5832 5833 5834 5834 5835 5836 5836 5837 5838 5838 5839 5839 5840 5841 5841 5842 5842 5842 5843
5799 5801 5802 5804 5806 5808 5809 5811 5812 5813 5815 5816 5817 5818 5819 5820 5821 5822 5823 5824 5825 5826 5826 5827 5828 5829 5830 5831 5832 5832 5833 5834 5835 5835 5836 5836 5837 5837 5838 5839 5839 5840 5840
5794 5796 5797 5799 5801 5802 5804 5806 5807 5808 5810 5811 5812 5813 5815 5816 5816 5817 5818 5819 5820 5821 5822 5823 5824 5825 5825 5826 5827 5828 5829 5830 5831 5832 5833 5833 5833 5834 5835 5835 5836 5837 5837
5789 5790 5792 5794 5796 5797 5799 5800 5802 5803 5804 5806 5807 5808 5809 5810 5811 5812 5813 5814 5815 5816 5817 5818 5819 5820 5821 5822 5823 5824 5825 5826 5827 5828 5829 5829 5830 5830 5831 5832 5832 5833 5833
5782 5784 5786 5788 5789 5791 5793 5794 5796 5797 5799 5800 5801 5802 5804 5805 5806 5807 5808 5809 5810 5811 5812 5813 5814 5815 5816 5817 5818 5819 5820 5821 5822 5823 5824 5825 5825 5826 5827 5827 5828 5829 5829
5776 5777 5779 5781 5783 5785 5786 5788 5790 5791 5793 5794 5795 5796 5798 5799 5800 5801 5802 5803 5804 5805 5806 5808 5809 5809 5810 5812 5813 5813 5815 5816 5817 5818 5819 5820 5820 5821 5822 5823 5823 5824 5825
5769 5771 5773 5774 5776 5778 5780 5781 5783 5785 5786 5788 5789 5790 5791 5792 5794 5795 5796 5797 5798 5799 5800 5802 5803 5803 5805 5806 5807 5808 5809 5810 5811 5813 5814 5815 5815 5816 5817 5818 5818 5819 5820
5761 5763 5765 5767 5769 5771 5773 5774 5776 5778 5779 5781 5782 5783 5784 5786 5787 5788 5789 5790 5791 5793 5794 5795 5796 5797 5798 5799 5800 5801 5803 5804 5805 5806 5808 5809 5810 5810 5811 5812 5813 5814 5814
5753 5755 5757 5759 5761 5763 5765 5767 5768 5770 5772 5773 5774 5776 5777 5778 5780 5781 5782 5783 5784 5786 5787 5788 5789 5790 5791 5792 5793 5795 5796 5797 5798 5799 5801 5802 5803 5804 5805 5806 5807 5808 5809
5744 5746 5748 5750 5753 5755 5757 5759 5760 5762 5764 5765 5766 5768 5769 5770 5772 5773 5775 5776 5777 5778 5779 5781 5782 5783 5784 5785 5786 5787 5788 5789 5791 5792 5793 5794 5796 5797 5798 5799 5800 5801 5802
5734 5737 5739 5741 5744 5746 5748 5750 5752 5753 5755 5756 5758 5759 5760 5762 5763 5765 5766 5768 5769 5770 5771 5773 5774 5775 5776 5777 5778 5779 5780 5781 5783 5784 5785 5787 5788 5789 5790 5791 5793 5794 5794
5725 5727 5729 5732 5734 5736 5738 5740 5742 5744 5746 5747 5749 5751 5752 5753 5755 5756 5758 5759 5761 5762 5763 5764 5765 5767 5768 5769 5770 5771 5772 5773 5774 5775 5777 5778 5779 5781 5782 5783 5784 5785 5786
5715 5717 5720 5722 5725 5726 5728 5730 5732 5734 5736 5738 5739 5741 5743 5744 5746 5747 5749 5750 5751 5753 5754 5755 5756 5757 5758 5759 5761 5762 5763 5764 5765 5766 5768 5769 5770 5772 5773 5774 5775 5777 5778
5704 5706 5709 5712 5714 5716 5719 5721 5723 5724 5726 5728 5730 5731 5733 5735 5736 5738 5739 5740 5742 5743 5744 5745 5747 5748 5749 5750 5751 5752 5753 5754 5756 5757 5758 5759 5761 5762 5763 5765 5766 5767 5769
5694 5696 5698 5701 5704 5706 5708 5710 5712 5714 5716 5718 5719 5721 5723 5724 5726 5727 5729 5731 5732 5733 5734 5736 5737 5738 5739 5740 5741 5742 5743 5745 5745 5747 5748 5749 5751 5752 5754 5755 5756 5757 5759
5683 5685 5687 5690 5693 5695 5697 5699 5701 5703 5705 5707 5709 5711 5712 5714 5716 5717 5719 5720 5721 5723 5724 5725 5727 5728 5729 5730 5731 5732 5733 5734 5735 5736 5737 5739 5740 5742 5743 5744 5746 5747 5748
5673 5674 5676 5679 5681 5683 5685 5687 5689 5692 5694 5696 5698 5700 5701 5703 5704 5706 5708 5709 5711 5712 5713 5714 5715 5716 5717 5718 5719 5720 5722 5723 5724 5725 5726 5727 5728 5730 5732 5733 5735 5736 5737
5661 5663 5664 5666 5668 5671 5673 5675 5678 5680 5682 5685 5686 5688 5690 5691 5693 5694 5696 5698 5699 5701 5702 5702 5703 5704 5706 5707 5708 5708 5709 5710 5711 5713 5714 5716 5717 5718 5720 5721 5723 5725 5726
5649 5650 5652 5654 5656 5659 5661 5663 5665 5667 5670 5672 5674 5675 5677 5679 5681 5682 5684 5685 5687 5688 5689 5690 5691 5692 5694 5695 5696 5697 5698 5699 5700 5700 5702 5703 5705 5706 5708 5709 5711 5712 5714